Location: Berg
(48.4333°N, 13.9167°E)
Time: 06:07:19
(UTC+00:00)

SL-08 RB Rocket - Pass Details

Date: 18 September 2020
Orbit: 646 x 685 km, 97.8° (Epoch: 22 October)

Event Time Altitude Azimuth Distance (km) Brightness Sun altitude
Exits shadow 17:54:37 - 145° (SE) 2,910 6.6 -8.2°
Reaches altitude 10° 17:56:40 10° 139° (SE) 2,103 5.8 -8.5°
Maximum altitude 18:00:59 42° 69° (ENE) 955 4.2 -9.2°
Drops below altitude 10° 18:05:18 10° 359° (N) 2,095 6.5 -9.9°
Sets 18:07:36 0° 353° (N) 3,006 7.4 -10.3°
